CZ-6A DEB, 54526

Orbit data source: Space-Track

CZ-6A DEB, 54526 is space debris in SSO originally from a launch on Fri, 11 Nov 2022 UTC launched from the Taiyaun Space Center, China (TSC). Debris objects in space refer to the collection of defunct objects orbiting the Earth. Examples of debris include non-operational satellites, rocket bodies, and fragments generated from explosions, collisions, or faulty payload assembly.

Loading next visibility...
Identifier
54526, 2022-151KE
Orbit
SSO
Country
Flag of CNCN / PRC
Related business
Manufacturer
SAST
Mission
Spacecraft
Bus & Motor
Unknown
Mass
Unknown
Launch date (UTC)
2022-11-11 (4 years ago)
Launch vehicle
Unknown
Launch site
Taiyaun Space Center, China (TSC)
Object type
Payload
Rocket body
Debris
Shape & HBR
Unknown shape, 0.3 m
Radar Cross Section
Medium (>0.1 m² and <1 m²)

Expand to show TLE details & history
Last TLE update: 2 days ago

TLE from 2 days ago
0 CZ-6A DEB
1 54526U 22151KE  26171.45684573  .00000185  00000-0  12761-3 0  9996
2 54526  98.8401 170.1309 0054324 353.6387   6.4088 14.10118604185150
Epoch: 2026-06-20T10:57Z
TLE epoch observation values (Epoch: 2026-06-20T10:57:51.471Z)
Latitude
0.00002°
Longitude
96.99523°
Altitude
822.789 km
Speed
7.462 km/s
True Right ascension
11h 20m 31s
True Declination
0° 00' 00"
Sunlit
Object was in daylight at epoch
Visualization orbit readout
Latitude
Unknown
Longitude
Unknown
Altitude
Unknown
Speed
Unknown
Apparent Right ascension
Unknown
Apparent Declination
Unknown
Sunlit
N/A
Visualization observer readout
Local Sidereal Time
21:36:30
Azimuth
Unknown
Elevation
Unknown
Doppler factor
Unknown
Orbital elements
Apogee altitude
895.443 km
Perigee altitude
816.844 km
Semi-major axis
7,234.281 km
Eccentricity
0.00543
Inclination
98.8401°
RAAN
170.1309°
Arg. of periapsis
353.6387°
True anomaly
6.47876°
Mean anomaly
6.4088°
Eccentric anomaly
6.44373°
Mean motion
3.52736 °/min
Orbital period
102.06 mins
BSTAR
0.00012761
Loading maneuver chart data...
Computing Atmospheric mass density...
Loading historical data...
Loading historical data...
Loading historical data...
Loading historical data...
Loading historical data...
Loading historical data...
Loading historical data...

Documentation

Showing up to 5 results
|